This is the latest recevied weather packets stored in our database for station/object 9M2EVR-2. If no packets are shown the sender has not sent any weather packets the latest 10 day(s).
| Time | Temp. | Humidity | Pressure | Rain* | Wind** | Luminosity | Snow |
|---|---|---|---|---|---|---|---|
| 1777876183 | 42.22° C | 41% | 1005.9 hPa | - | - | - | - |
| 1777875282 | 41.11° C | 41% | 1006.2 hPa | - | - | - | - |
| 1777874381 | 41.67° C | 42% | 1006.5 hPa | - | - | - | - |
| 1777873480 | 41.67° C | 42% | 1006.9 hPa | - | - | - | - |
| 1777872580 | 42.22° C | 42% | 1007.2 hPa | - | - | - | - |
| 1777871679 | 41.11° C | 42% | 1007.3 hPa | - | - | - | - |
| 1777870778 | 41.11° C | 44% | 1007.7 hPa | - | - | - | - |
| 1777869876 | 41.11° C | 44% | 1007.9 hPa | - | - | - | - |
| 1777868976 | 41.11° C | 44% | 1008.4 hPa | - | - | - | - |
| 1777868075 | 40.56° C | 44% | 1008.7 hPa | - | - | - | - |
| 1777867174 | 40° C | 44% | 1008.7 hPa | - | - | - | - |
| 1777866273 | 40° C | 47% | 1008.6 hPa | - | - | - | - |
| 1777865372 | 39.44° C | 47% | 1008.7 hPa | - | - | - | - |
| 1777864472 | 38.89° C | 48% | 1008.6 hPa | - | - | - | - |
| 1777863571 | 38.89° C | 49% | 1008.8 hPa | - | - | - | - |
| 1777862670 | 38.89° C | 49% | 1009.1 hPa | - | - | - | - |
| 1777861769 | 38.33° C | 50% | 1009.2 hPa | - | - | - | - |
| 1777860868 | 38.33° C | 50% | 1009.4 hPa | - | - | - | - |
| 1777859968 | 37.22° C | 51% | 1009.4 hPa | - | - | - | - |
| 1777859067 | 37.22° C | 52% | 1009.4 hPa | - | - | - | - |
| 1777858166 | 36.67° C | 52% | 1009.3 hPa | - | - | - | - |
| 1777857265 | 36.11° C | 53% | 1008.9 hPa | - | - | - | - |
| 1777856364 | 35.56° C | 54% | 1008.8 hPa | - | - | - | - |
| 1777855464 | 35.56° C | 54% | 1008.5 hPa | - | - | - | - |
| 1777854563 | 35° C | 55% | 1008.3 hPa | - | - | - | - |
* Rain since midnight (hover to see other rain measurements)
** Current wind speed in m/s (hover to see current wind gust speed)